This is the latest recevied weather packets stored in our database for station/object OE5RPP. If no packets are shown the sender has not sent any weather packets the latest 10 day(s).
| Time | Temp. | Humidity | Pressure | Rain* | Wind** | Luminosity | Snow |
|---|---|---|---|---|---|---|---|
| 1777237457 | 7.78° C | 32% | 1024.9 hPa | 0 mm | - | - | - |
| 1777236856 | 7.22° C | 30% | 1024.9 hPa | 0 mm | - | - | - |
| 1777236256 | 7.78° C | 30% | 1024.9 hPa | 0 mm | - | - | - |
| 1777235656 | 7.78° C | 26% | 1024.9 hPa | 0 mm | - | - | - |
| 1777235057 | 7.78° C | 26% | 1024.9 hPa | 0 mm | - | - | - |
| 1777234456 | 8.33° C | 26% | 1023.9 hPa | 0 mm | - | - | - |
| 1777233857 | 8.89° C | 26% | 1023.9 hPa | 0 mm | - | - | - |
| 1777233256 | 8.89° C | 26% | 1023.9 hPa | 0 mm | - | - | - |
| 1777232656 | 10° C | 25% | 1023.9 hPa | 0 mm | - | - | - |
| 1777232056 | 10° C | 25% | 1023.9 hPa | 0 mm | - | - | - |
| 1777231456 | 10.56° C | 22% | 1023.9 hPa | 0 mm | - | - | - |
| 1777230855 | 10.56° C | 22% | 1023.9 hPa | 0 mm | - | - | - |
| 1777230255 | 11.11° C | 21% | 1023.9 hPa | 0 mm | - | - | - |
| 1777229656 | 11.11° C | 21% | 1023.9 hPa | 0 mm | - | - | - |
| 1777229055 | 11.67° C | 21% | 1023.9 hPa | 0 mm | - | - | - |
| 1777228455 | 12.22° C | 23% | 1023.9 hPa | 0 mm | - | - | - |
| 1777227855 | 12.22° C | 23% | 1023.9 hPa | 0 mm | - | - | - |
| 1777227254 | 12.78° C | 23% | 1022.9 hPa | 0 mm | - | - | - |
| 1777226654 | 13.33° C | 23% | 1022.9 hPa | 0 mm | - | - | - |
| 1777226056 | 13.33° C | 23% | 1022.9 hPa | 0 mm | - | - | - |
| 1777225455 | 13.89° C | 23% | 1022.9 hPa | 0 mm | - | - | - |
| 1777224855 | 14.44° C | 23% | 1022.9 hPa | 0 mm | - | - | - |
| 1777224256 | 15° C | 23% | 1022.9 hPa | 0 mm | - | - | - |
| 1777223655 | 15.56° C | 22% | 1022.9 hPa | 0 mm | - | - | - |
| 1777223055 | 15.56° C | 22% | 1022.9 hPa | 0 mm | - | - | - |
* Rain latest hour (hover to see other rain measurements)
** Current wind speed in m/s (hover to see current wind gust speed)